Regional Weather Roundup
Issued by NWS

Home | Current Version | Previous Version | Graphics & Text | Print | Product List | Glossary On
Versions: 1 2 3 4 5 6 7 8 9 10 11 12 13 14 15 16 17 18 19 20 21 22 23 24 25 26 27 28 29 30 31 32 33 34 35 36 37 38 39 40 41 42 43 44 45 46 47 48 49 50
000
ASUS43 KLSX 240459
RWRMO

WEATHER SUMMARY FOR MISSOURI
NATIONAL WEATHER SERVICE SPRINGFIELD MO
1200 AM CDT FRI MAR 24 2017

NOTE: "FAIR" INDICATES FEW OR NO CLOUDS BELOW 12,000 FEET WITH NO
       SIGNIFICANT WEATHER AND/OR OBSTRUCTIONS TO VISIBILITY.
       CURRENT SKY AND/OR WEATHER CONDITIONS ARE NOT AVAILABLE FOR
       CHILLICOTHE AND FARMINGTON.

MOZ001>031-035>038-043-044-053-054-240600-
...NORTHERN AND WESTERN MISSOURI...

CITY           SKY/WX    TMP DP  RH WIND       PRES   REMARKS
KANSAS CTY INT MOCLDY    69  47  45 S21G33    29.77F
KANSAS C DTWN  PTCLDY    71  47  42 S17G28    29.78F
LEE`S SUMMIT   PTCLDY    69  47  45 S18G30    29.80F
ST JOSEPH      CLOUDY    69  48  47 S18       29.75F
CHILLICOTHE      N/A     67  49  52 S10       29.82F
KIRKSVILLE     CLOUDY    49  32  52 S6        29.86S

$$
MOZ066>068-077>081-088>096-101>105-240600-
...SOUTHWEST MISSOURI...

CITY           SKY/WX    TMP DP  RH WIND       PRES   REMARKS
SPRINGFIELD    CLOUDY    67  51  56 S22       29.90S
JOPLIN         CLEAR     71  50  47 S22G30    29.85S

$$
MOZ032>034-039>042-045>050-055>058-069>072-240600-
...CENTRAL MISSOURI...

CITY           SKY/WX    TMP DP  RH WIND       PRES   REMARKS
COLUMBIA       PTCLDY    66  52  60 S17       29.90S
JEFFERSON CITY CLEAR     70  51  51 S10G20    29.90F
ROLLA          CLEAR     64  50  60 S20G28    29.93F
SEDALIA        PTCLDY    69  50  50 S17G25    29.87S
WARRENSBURG    CLOUDY    68  45  42 S14G22    29.83S
OSAGE BEACH    PTCLDY   N/A N/A N/A S10G21    29.91F

$$
MOZ051-052-059>065-240600-
...EAST CENTRAL MISSOURI...

CITY           SKY/WX    TMP DP  RH WIND       PRES   REMARKS
ST LOUIS INTL  CLEAR     59  44  57 SE12      29.99F
SPIRIT OF STL  CLEAR     61  47  59 VRB7      29.96F
ST CHARLES     CLEAR     51  45  79 SE8       29.98F

$$
MOZ072>076-082>087-097>100-106>115-240600-
...SOUTH CENTRAL AND SOUTHEAST MISSOURI...

CITY           SKY/WX    TMP DP  RH WIND       PRES   REMARKS
CAPE GIRARDEAU CLEAR     59  45  59 S8        30.06F
FARMINGTON     CLEAR     61  49  64 S13       30.03S
POPLAR BLUFF   CLEAR     63  52  67 S9        30.05F
WEST PLAINS    CLEAR     63  51  65 SE9       30.03F

$$



USA.gov is the U.S. government's official web portal to all federal, state and local government web resources and services.